TimePST,TemperatureF,Dew PointF,Humidity,Sea Level PressureIn,VisibilityMPH,Wind Direction,Wind SpeedMPH,Gust SpeedMPH,PrecipitationIn,Events,Conditions,WindDirDegrees,DateUTC
12:58 AM,21.4,18.3,88,30.43,10.0,Calm,Calm,-,N/A,,Clear,0,2013-11-25 08:58:00
1:58 AM,26.2,21.7,83,30.43,10.0,NE,4.6,-,N/A,,Partly Cloudy,40,2013-11-25 09:58:00
2:58 AM,24.6,21.0,86,30.44,10.0,NNE,2.3,-,N/A,,Partly Cloudy,20,2013-11-25 10:58:00
3:58 AM,23.9,20.5,87,30.45,10.0,NE,4.6,-,N/A,,Clear,50,2013-11-25 11:58:00
4:58 AM,21.0,18.5,90,30.46,10.0,North,6.9,-,N/A,,Clear,360,2013-11-25 12:58:00
5:58 AM,22.3,19.6,89,30.46,10.0,NE,5.8,-,N/A,,Clear,40,2013-11-25 13:58:00
6:58 AM,20.5,18.3,91,30.47,10.0,NE,6.9,-,N/A,,Partly Cloudy,40,2013-11-25 14:58:00
7:50 AM,26.6,23.0,86,30.39,10.0,NNE,10.4,-,N/A,,Scattered Clouds,30,2013-11-25 15:50:00
7:58 AM,26.4,23.5,89,30.48,10.0,NNE,9.2,-,0.00,,Mostly Cloudy,30,2013-11-25 15:58:00
8:06 AM,26.6,23.0,86,30.39,10.0,Variable,5.8,-,N/A,,Scattered Clouds,0,2013-11-25 16:06:00
8:18 AM,26.6,23.0,86,30.39,10.0,North,6.9,-,N/A,,Scattered Clouds,360,2013-11-25 16:18:00
8:28 AM,26.6,23.0,86,30.39,10.0,North,6.9,-,N/A,,Partly Cloudy,360,2013-11-25 16:28:00
8:58 AM,27.1,24.6,90,30.50,10.0,North,5.8,-,0.00,,Scattered Clouds,10,2013-11-25 16:58:00
9:58 AM,30.6,26.6,85,30.51,10.0,NE,6.9,-,N/A,,Mostly Cloudy,50,2013-11-25 17:58:00
10:58 AM,34.3,27.0,74,30.49,10.0,NNE,6.9,-,N/A,,Partly Cloudy,30,2013-11-25 18:58:00
11:58 AM,34.9,26.6,72,30.48,10.0,NNE,6.9,-,N/A,,Clear,20,2013-11-25 19:58:00
12:58 PM,36.5,26.2,66,30.47,10.0,NE,4.6,-,N/A,,Scattered Clouds,40,2013-11-25 20:58:00
1:58 PM,37.4,26.1,64,30.45,10.0,NNE,6.9,-,0.00,,Clear,20,2013-11-25 21:58:00
2:58 PM,36.1,25.3,65,30.46,10.0,NNE,8.1,-,N/A,,Clear,20,2013-11-25 22:58:00
3:58 PM,33.4,25.0,71,30.46,10.0,North,4.6,-,N/A,,Clear,10,2013-11-25 23:58:00
4:38 PM,32.0,24.8,75,30.35,10.0,NNE,5.8,-,N/A,,Clear,30,2013-11-26 00:38:00
4:47 PM,32.0,24.8,75,30.35,10.0,NNE,5.8,-,N/A,,Clear,20,2013-11-26 00:47:00
4:58 PM,31.5,24.8,76,30.45,10.0,NE,3.5,-,0.00,,Partly Cloudy,40,2013-11-26 00:58:00
5:15 PM,32.0,24.8,75,30.35,10.0,NNE,8.1,-,N/A,,Partly Cloudy,30,2013-11-26 01:15:00
5:24 PM,30.2,24.8,80,30.35,10.0,NE,6.9,-,N/A,,Partly Cloudy,40,2013-11-26 01:24:00
5:58 PM,31.3,24.3,75,30.45,10.0,WNW,4.6,-,0.00,,Partly Cloudy,300,2013-11-26 01:58:00
5:59 PM,30.2,24.8,80,30.35,10.0,NW,4.6,-,N/A,,Clear,320,2013-11-26 01:59:00
6:24 PM,30.2,24.8,80,30.35,10.0,North,5.8,-,N/A,,Clear,350,2013-11-26 02:24:00
6:58 PM,30.0,24.4,80,30.45,10.0,North,6.9,-,0.00,,Clear,10,2013-11-26 02:58:00
7:51 PM,32.0,24.8,75,30.35,10.0,NNW,5.8,-,N/A,,Clear,340,2013-11-26 03:51:00
7:58 PM,30.9,24.4,77,30.44,10.0,North,5.8,-,0.00,,Clear,350,2013-11-26 03:58:00
8:06 PM,30.2,24.8,80,30.35,10.0,North,5.8,-,N/A,,Clear,350,2013-11-26 04:06:00
8:58 PM,29.5,24.3,81,30.43,10.0,NNE,5.8,-,0.00,,Clear,20,2013-11-26 04:58:00
9:58 PM,28.9,24.3,83,30.43,10.0,NNE,4.6,-,N/A,,Clear,30,2013-11-26 05:58:00
10:45 PM,28.4,24.8,86,30.34,10.0,North,4.6,-,N/A,,Clear,350,2013-11-26 06:45:00
10:58 PM,28.8,24.3,83,30.42,10.0,North,5.8,-,0.00,,Clear,10,2013-11-26 06:58:00
10:59 PM,28.4,24.8,86,30.34,10.0,North,5.8,-,N/A,,Clear,10,2013-11-26 06:59:00
11:58 PM,28.6,24.1,83,30.41,10.0,NNE,5.8,-,0.00,,Partly Cloudy,20,2013-11-26 07:58:00